DECAYED

STARLINK-31175, 58833 (Decayed)

Orbit data source: Space-Track

STARLINK-31175, 58833 was a payload satellite owned by SpaceX/Seattle (US) in LEO that was launched on Wed, 24 Jan 2024 UTC via an FALCON 9 launch vehicle from the Air Force Western Test Range (AFWTR). Payload-class satellites include a variety of spacecraft equipped with specific instruments for various scientific and technological missions. These include communications satellites like Starlink; space stations such as the ISS; scientific satellites like the Hubble; Earth observation satellites from companies like Planet Labs, Umbra, and HawkEye 360; GPS; miniature CubeSats for education and research; and military/defense satellites.

Not visible in the next 10 days
Identifier
58833, 2024-017H
Orbit
Decayed
Country
Flag of USUS
Related business
Manufacturer
SpaceX/Seattle
Mission
Decayed Commercial Communications
Bus & Motor
STARLINK V2M, Unknown motor
Mass
730 kg wet, ~700 kg dry
Launch date (UTC)
2024-01-24 (2 years ago)
Launch vehicle
FALCON 9
Launch site
Air Force Western Test Range (AFWTR)
Object type
Payload
Rocket body
Debris
Shape & HBR
Box + 2 Pan, 17.7 m
Radar Cross Section
33.884 m², Large (>1 m²)

Expand to show TLE details & history
Last TLE update: 1 year ago

TLE from 1 year ago
0 STARLINK-31175
1 58833U 24017H   25035.34401112  .38840704  12517-4  68900-3 0  9992
2 58833  53.0949 203.6623 0013631  95.4433 339.9787 16.46551955 59785
Epoch: 2025-02-04T08:15Z
TLE epoch observation values (Epoch: 2025-02-04T08:15:22.560Z)
Latitude
50.84428°
Longitude
11.54428°
Altitude
146.028 km
Speed
7.83 km/s
True Right ascension
18h 00m 33s
True Declination
50° 39' 36"
Sunlit
Object was in daylight at epoch
Visualization orbit readout
Latitude
Unknown
Longitude
Unknown
Altitude
Unknown
Speed
Unknown
Apparent Right ascension
Unknown
Apparent Declination
Unknown
Sunlit
N/A
Visualization observer readout
Local Sidereal Time
21:25:24
Azimuth
Unknown
Elevation
Unknown
Doppler factor
Unknown
Orbital elements
Apogee altitude
157.608 km
Perigee altitude
139.814 km
Semi-major axis
6,526.848 km
Eccentricity
0.00136
Inclination
53.0949°
RAAN
203.6623°
Arg. of periapsis
95.4433°
True anomaly
339.92514°
Mean anomaly
339.9787°
Eccentric anomaly
339.95193°
Mean motion
4.11612 °/min
Orbital period
87.46 mins
BSTAR
0.000689
Loading maneuver chart data...
Computing Atmospheric mass density...
Loading historical data...
Loading historical data...
Loading historical data...
Loading historical data...
Loading historical data...
Loading historical data...
Loading historical data...

Documentation

Showing up to 5 results
|